Camp Pendleton, CA

3:59 PM PDT on May 29, 2017 (GMT -0700)
Camp Pendleton Marine Corps Air Station

Weather History for KNFG - November, 2012

Change the Weather History Date:

Sunday, November 18, 2012

  Actual Average Record
Temperature  
Mean Temperature 58 °F -  
Max Temperature 69 °F 68 °F 90 °F (2005)
Min Temperature 48 °F 41 °F 30 °F (2000)
Degree Days  
Heating Degree Days 6    
Growing Degree Days 8 (Base 50)    
Moisture  
Dew Point 52 °F    
Average Humidity 80    
Maximum Humidity 88    
Minimum Humidity 58    
Precipitation  
Precipitation 0.06 in - - ()
Sea Level Pressure  
Sea Level Pressure 30.12 in    
Wind  
Wind Speed 1 mph (West)    
Max Wind Speed 10 mph    
Max Gust Speed -    
Visibility 9 miles    
Events Rain    
Averages and records for this station are not official NWS values.
T = Trace of Precipitation, MM = Missing Value Source: NWS Daily Summary

Daily Weather History Graph

Daily Weather History Graph

Search for Another Location

Airport or City:

Trip Planner

Search our weather history database for the weather conditions in past years. The results will help you decide how hot, cold, wet, or windy it might be!

Date:

Astronomy

Nov. 18, 2012 Rise Set
Actual Time 6:23 AM PST 4:45 PM PST
Civil Twilight 5:57 AM PST 5:11 PM PST
Nautical Twilight 5:27 AM PST 5:41 PM PST
Astronomical Twilight 4:57 AM PST 6:11 PM PST
Moon 10:57 AM PST (11/18) 10:05 PM PST (11/18)
Length of Visible Light 11h 14m
Length of Day
10h 21m
Waxing Crescent, 31% of the Moon is Illuminated
Nov 18
Waxing Crescent
Nov 20
First Quarter
Nov 28
Full
Dec 6
Last Quarter
Dec 13
New

Hourly Weather History & Observations

Time (PST) Temp. Dew Point Humidity Pressure Visibility Wind Dir Wind Speed Gust Speed Precip Events Conditions
12:10 AM 59.0 °F 53.6 °F 82% 30.10 in 10.0 mi Calm Calm - N/A   Mostly Cloudy
12:18 AM 59.0 °F 53.6 °F 82% 30.10 in 10.0 mi Calm Calm - N/A   Scattered Clouds
12:34 AM 57.2 °F 53.6 °F 88% 30.10 in 10.0 mi Calm Calm - N/A   Mostly Cloudy
12:54 AM 57.9 °F 53.1 °F 84% 30.10 in 10.0 mi Calm Calm - N/A   Mostly Cloudy
1:30 AM 57.2 °F 53.6 °F 88% 30.10 in 10.0 mi Calm Calm - N/A   Overcast
1:54 AM 57.9 °F 53.1 °F 84% 30.09 in 10.0 mi Calm Calm - N/A   Overcast
2:54 AM 57.9 °F 53.1 °F 84% 30.08 in 10.0 mi Calm Calm - N/A   Mostly Cloudy
3:54 AM 57.9 °F 54.0 °F 87% 30.08 in 10.0 mi Calm Calm - N/A   Overcast
4:54 AM 57.9 °F 54.0 °F 87% 30.08 in 10.0 mi Calm Calm - N/A   Overcast
5:54 AM 59.0 °F 54.0 °F 83% 30.09 in 8.0 mi Calm Calm - 0.00 in Rain Light Rain
6:05 AM 59.0 °F 55.4 °F 88% 30.09 in 4.0 mi Calm Calm - 0.01 in Rain Light Rain
6:38 AM 59.0 °F 55.4 °F 88% 30.10 in 5.0 mi Calm Calm - 0.04 in Rain Light Rain
6:54 AM 59.0 °F 55.0 °F 87% 30.11 in 5.0 mi Calm Calm - 0.05 in Rain Light Rain
7:34 AM 60.8 °F 55.4 °F 82% 30.12 in - North - - 0.01 in   Unknown
7:54 AM - - N/A% 30.13 in - North - - 0.01 in   Unknown
8:54 AM - - N/A% 30.14 in - North - - N/A   Unknown
9:54 AM - - N/A% 30.15 in - North - - N/A   Unknown
10:54 AM - - N/A% 30.14 in - North - - N/A   Unknown
11:54 AM - - N/A% 30.12 in - North - - N/A   Unknown
12:54 PM - - N/A% 30.11 in - North - - N/A   Unknown
1:54 PM 69.1 °F 54.0 °F 58% 30.10 in 10.0 mi WSW 10.4 mph - N/A   Clear
2:54 PM 68.0 °F 53.1 °F 59% 30.10 in 10.0 mi WSW 9.2 mph - N/A   Clear
3:54 PM 66.0 °F 52.0 °F 60% 30.11 in 10.0 mi Variable 6.9 mph - N/A   Clear
4:54 PM 63.0 °F 52.0 °F 67% 30.12 in 10.0 mi SSW 4.6 mph - N/A   Clear
5:54 PM 61.0 °F 51.1 °F 70% 30.13 in 10.0 mi Calm Calm - N/A   Clear
6:54 PM 61.0 °F 51.1 °F 70% 30.14 in 10.0 mi NNE 4.6 mph - N/A   Clear
7:54 PM 57.0 °F 51.1 °F 81% 30.16 in 10.0 mi Calm Calm - N/A   Clear
8:54 PM 55.0 °F 50.0 °F 83% 30.17 in 10.0 mi ENE 3.5 mph - N/A   Clear
9:54 PM 52.0 °F 48.0 °F 86% 30.18 in 10.0 mi Calm Calm - N/A   Clear
10:54 PM 48.9 °F 44.1 °F 83% 30.19 in 10.0 mi Calm Calm - N/A   Clear
11:54 PM 50.0 °F 45.0 °F 83% 30.19 in 10.0 mi Calm Calm - N/A   Clear